Guest (not logged in) | Log in

Project information

Duration: 2018-12-20 00:00 onwards
Historical data from: 1995-01-01
Position: 0° 0' 0.00" N
0° 0' 0.00" E
0 m A.S.L
Contact: Carsten Weber Kock
Description: Zephir 317 måler vind i Roskilde

Measurements

NameHeight [m]DurationLatest (2019-04-21 23:50)
Dir_100m 0.00 2018-12-20 14:20 onwards 69.32 Deg
Dir_10m 0.00 2018-12-20 14:20 onwards 68.04 Deg
Dir_125m 0.00 2018-12-20 14:20 onwards 68.19 Deg
Dir_150m 0.00 2018-12-20 14:20 onwards 65.97 Deg
Dir_200m 0.00 2018-12-20 14:20 onwards 65.29 Deg
Dir_20m 0.00 2018-12-20 14:20 onwards 60.45 Deg
Dir_30m 0.00 2018-12-20 14:20 onwards 56.97 Deg
Dir_38m 0.00 2018-12-20 14:20 onwards 57.54 Deg
Dir_50m 0.00 2018-12-20 14:20 onwards 58.33 Deg
Dir_60m 0.00 2018-12-20 14:20 onwards 61.58 Deg
Dir_800m 0.00 2018-12-20 14:20 onwards -
Dir_80m 0.00 2018-12-20 14:20 onwards 68.04 Deg
Humidity 0.00 2018-12-20 14:20 onwards 57.60 %
MetDir 0.00 2018-12-20 14:20 onwards 175.49 Deg
Metwsp 0.00 2018-12-20 14:20 onwards 0.79 m/s
Pressure 0.00 2018-12-20 14:20 onwards 1014.10 mbar
Temp 0.00 2018-12-20 14:20 onwards 4.80 DegC
TI_100m 0.00 2018-12-20 14:20 onwards 0.11 -
TI_10m 0.00 2018-12-20 14:20 onwards 0.07 -
TI_125m 0.00 2018-12-20 14:20 onwards 0.09 -
TI_150m 0.00 2018-12-20 14:20 onwards 0.12 -
TI_200m 0.00 2018-12-20 14:20 onwards 0.22 -
TI_20m 0.00 2018-12-20 14:20 onwards 0.07 -
TI_30m 0.00 2018-12-20 14:20 onwards 0.09 -
TI_38m 0.00 2018-12-20 14:20 onwards 0.09 -
TI_50m 0.00 2018-12-20 14:20 onwards 0.09 -
TI_60m 0.00 2018-12-20 14:20 onwards 0.11 -
TI_800m 0.00 2018-12-20 14:20 onwards -
TI_80m 0.00 2018-12-20 14:20 onwards 0.14 -
Vert_100m 0.00 2018-12-20 14:20 onwards 0.01 m/s
Vert_10m 0.00 2018-12-20 14:20 onwards 0.00 m/s
Vert_125m 0.00 2018-12-20 14:20 onwards 0.02 m/s
Vert_150m 0.00 2018-12-20 14:20 onwards 0.03 m/s
Vert_200m 0.00 2018-12-20 14:20 onwards 0.06 m/s
Vert_20m 0.00 2018-12-20 14:20 onwards 0.00 m/s
Vert_30m 0.00 2018-12-20 14:20 onwards 0.00 m/s
Vert_38m 0.00 2018-12-20 14:20 onwards 0.00 m/s
Vert_50m 0.00 2018-12-20 14:20 onwards 0.01 m/s
Vert_60m 0.00 2018-12-20 14:20 onwards 0.01 m/s
Vert_800m 0.00 2018-12-20 14:20 onwards -
Vert_80m 0.00 2018-12-20 14:20 onwards 0.00 m/s
Wsp_100m 0.00 2018-12-20 14:20 onwards 3.06 m/s
Wsp_10m 0.00 2018-12-20 14:20 onwards 0.72 m/s
Wsp_125m 0.00 2018-12-20 14:20 onwards 3.15 m/s
Wsp_150m 0.00 2018-12-20 14:20 onwards 3.03 m/s
Wsp_200m 0.00 2018-12-20 14:20 onwards 2.36 m/s
Wsp_20m 0.00 2018-12-20 14:20 onwards 1.93 m/s
Wsp_30m 0.00 2018-12-20 14:20 onwards 2.60 m/s
Wsp_38m 0.00 2018-12-20 14:20 onwards 2.88 m/s
Wsp_50m 0.00 2018-12-20 14:20 onwards 2.93 m/s
Wsp_60m 0.00 2018-12-20 14:20 onwards 2.65 m/s
Wsp_800m 0.00 2018-12-20 14:20 onwards -
Wsp_80m 0.00 2018-12-20 14:20 onwards 2.79 m/s
Comments and help requests to webmaster
© 2019